Location: Mentone
(34.5413°N, 85.5351°W)
Time: 09:37:26
(UTC-05:00)

Centaur AC-72 - Visible Passes

Search period start: 25 April 2018 00:00
Search period end: 05 May 2018 00:00
Orbit: 1120 x 35236 km, 19.0° (Epoch: 25 April)

Date Brightness Start Highest point End Pass type
(mag) Time Alt. Az. Time Alt. Az. Time Alt. Az.
25 Apr 6.2 00:25:01 43° SE 00:25:01 43° SE 09:42:10 10° SE visible
28 Apr 6.2 02:52:41 38° SW 03:19:17 66° SSE 12:28:51 10° SSE visible
29 Apr 6.2 00:09:08 43° SE 00:09:08 43° SE 09:25:08 10° SE visible
01 May 7.1 05:25:26 10° W 07:02:06 56° SW 14:21:50 10° SW visible
02 May 6.2 02:36:37 38° SW 03:01:39 66° S 12:12:41 10° SSE visible
02 May 6.1 23:53:01 42° SE 23:53:01 42° SE 09:08:02 10° SE visible
